Location: Albany
(35.0170°S, 117.8920°E)
Time: 08:28:07
(UTC+08:00)

S-56A Canister/Altair - Pass Details

Date: 24 January 2021
Orbit: 632 x 2501 km, 38.9° (Epoch: 25 February)

Event Time Altitude Azimuth Distance (km) Brightness Sun altitude
Rises 13:41:03 0° 301° (WNW) 5,478 12.2 66.2°
Reaches altitude 10° 13:44:18 10° 302° (WNW) 4,668 12.1 65.6°
Maximum altitude 13:58:13 80° 26° (NNE) 2,516 11.5 63.2°
Drops below altitude 10° 14:13:18 10° 109° (ESE) 5,009 11.5 60.5°
Sets 14:16:56 0° 110° (ESE) 5,883 11.7 59.8°
